[[{"header":{"parameterUnit":"m.s-1","parameterCategory":1,"la1":30.2991,"la2":30.254,"lo1":-89.0895,"lo2":-89.0444,"dy":0.0017,"dx":0.0017,"nx":28,"ny":28,"refTime":"2024-12-05T09:00:00:Z","depth":0,"parameterNumber":2,"parameterNumberName":"U-component_of_WINDS"},"data":[0,0,0,0,0,0,0,0,0,0,0,0,0,0,0,0,0,0,0,0,0,0,0,0,0,0,0,0,0,0,0,0,0,0,0,0,0,0,0,0,0,0,0,0,0,0,0,0,0,0,0,0,0,0,0,0,0,0,-1.4162,-1.4162,0,-1.4173,-1.4173,-1.4173,-1.4139,-1.4138,-1.4137,-1.4136,-1.4148,-1.4149,-1.415,0,0,0,0,0,0,0,0,0,0,0,0,0,-1.4113,-1.4114,-1.4162,-1.4162,-1.4163,-1.4173,-1.4173,-1.4173,-1.4139,-1.4138,-1.4137,-1.4135,-1.4147,-1.4149,-1.4151,0,0,0,0,0,0,0,0,0,0,0,0,0,-1.413,-1.4115,-1.4162,-1.4147,-1.4146,-1.4173,-1.4173,-1.4173,-1.4139,-1.4138,-1.4136,-1.4135,-1.4147,-1.4149,-1.4151,-1.4194,0,0,-1.4157,-1.4158,0,0,0,0,0,0,0,0,-1.4129,-1.4132,-1.4149,-1.4148,-1.4147,-1.4153,-1.416,-1.418,-1.414,-1.4142,-1.4136,-1.4134,-1.4151,-1.4152,-1.4158,-1.4194,-1.4195,-1.4157,-1.4158,-1.4159,-1.4159,0,0,0,0,0,0,0,-1.4128,-1.4131,-1.4167,-1.4149,-1.4148,-1.4139,-1.414,-1.4164,-1.4155,-1.4141,-1.4139,-1.4141,-1.415,-1.4156,-1.4158,-1.4195,-1.4157,-1.4159,-1.416,-1.416,-1.4267,-1.4269,0,0,0,0,0,0,-1.4129,-1.4131,-1.4166,-1.4167,-1.4134,-1.4142,-1.4142,-1.4153,-1.4155,-1.4153,-1.4142,-1.4139,-1.4154,-1.4156,-1.4158,-1.4209,-1.4159,-1.4161,-1.4162,-1.4265,-1.4267,-1.4269,0,0,0,0,0,0,-1.4128,-1.4132,-1.4166,-1.4148,-1.4152,-1.4144,-1.4156,-1.4154,-1.416,-1.4155,-1.4153,-1.415,-1.4152,-1.4155,-1.4185,-1.4209,-1.4162,-1.4163,-1.4263,-1.4266,-1.4268,-1.431,0,0,0,0,0,0,-1.4127,-1.4132,-1.4149,-1.4149,-1.4153,-1.4193,-1.4157,-1.4155,-1.4163,-1.4159,-1.4162,-1.4161,-1.4151,-1.4182,-1.4187,-1.421,-1.4165,-1.4261,-1.4265,-1.4268,-1.4307,-1.4314,-1.432,0,0,0,0,0,-1.4125,-1.416,-1.415,-1.4154,-1.4173,-1.4194,-1.4196,-1.4184,-1.4165,-1.4181,-1.4178,-1.4161,-1.4205,-1.4186,-1.4191,-1.4215,-1.426,-1.4264,-1.4267,-1.4304,-1.4312,-1.432,0,0,0,0,0,0,-1.4164,-1.416,-1.4148,-1.4184,-1.419,-1.4188,-1.4208,-1.4194,-1.4205,-1.4201,-1.4186,-1.4187,-1.4219,-1.422,-1.4198,-1.4257,-1.4229,-1.4234,-1.4255,-1.4263,-1.427,-1.4269,-1.4166,0,0,0,0,0,-1.4176,-1.4194,-1.4189,-1.4222,-1.4225,-1.4216,-1.4225,-1.4215,-1.422,-1.4222,-1.4221,-1.4227,-1.4242,-1.4253,-1.4266,-1.4306,-1.4306,-1.4325,-1.4332,-1.4337,-1.4342,-1.4363,-1.4371,-1.4282,-1.4282,-1.4281,0,0,-1.4203,-1.4203,-1.4215,-1.423,-1.4233,-1.4251,-1.4219,-1.4239,-1.4253,-1.4226,-1.4254,-1.4253,-1.4258,-1.4293,-1.4308,-1.4295,-1.4367,-1.4342,-1.4347,-1.4348,-1.4368,-1.4376,-1.4384,-1.4284,-1.4284,-1.4283,0,0,-1.4261,-1.4263,-1.429,-1.4293,-1.4297,-1.4291,-1.4298,-1.4298,-1.4297,-1.4324,-1.4304,-1.432,-1.4346,-1.4351,-1.4357,-1.4415,-1.4399,-1.442,-1.4455,-1.4475,-1.4482,-1.4488,-1.4509,-1.4517,-1.4424,-1.4424,-1.4424,0,-1.4294,-1.432,-1.4306,-1.4327,-1.4334,-1.431,-1.4337,-1.4341,-1.435,-1.4356,-1.434,-1.4372,-1.4374,-1.4409,-1.4424,-1.4429,-1.4436,-1.442,-1.4482,-1.4488,-1.4494,-1.4514,-1.4522,-1.4427,-1.4427,-1.4426,-1.4426,0,-1.436,-1.4379,-1.44,-1.4409,-1.4418,-1.4442,-1.4432,-1.4443,-1.4432,-1.4427,-1.4455,-1.4457,-1.447,-1.4477,-1.4467,-1.4511,-1.4503,-1.4485,-1.4457,-1.4505,-1.4524,-1.4531,-1.443,-1.443,-1.4429,-1.4428,0,0,-1.4444,-1.4443,-1.4451,-1.4455,-1.4457,-1.4472,-1.4495,-1.4507,-1.4517,-1.4524,-1.4543,-1.4565,-1.4549,-1.4555,-1.4545,-1.4563,-1.4609,-1.4543,-1.4543,-1.4556,-1.4658,-1.4672,-1.4681,-1.4599,-1.46,-1.4601,-1.4657,0,-1.4501,-1.454,-1.4528,-1.4568,-1.4584,-1.4561,-1.4581,-1.4585,-1.4581,-1.4595,-1.459,-1.4607,-1.4583,-1.4587,-1.4604,-1.46,-1.463,-1.4596,-1.4617,-1.4618,-1.4617,-1.469,-1.4705,-1.4758,-1.4665,-1.4666,-1.4667,0,-1.4573,-1.4582,-1.4624,-1.4623,-1.4629,-1.4648,-1.4658,-1.4671,-1.4675,-1.4671,-1.4678,-1.4664,-1.4686,-1.4658,-1.4689,-1.4666,-1.4674,-1.4673,-1.4675,-1.4677,-1.4646,-1.4695,-1.4775,-1.4783,-1.4678,-1.4677,-1.4676,0,-1.463,-1.4653,-1.468,-1.4684,-1.4684,-1.4697,-1.4698,-1.47,-1.4708,-1.4716,-1.4722,-1.4733,-1.474,-1.4749,-1.4738,-1.4718,-1.4771,-1.4741,-1.4768,-1.4769,-1.4781,-1.478,-1.4864,-1.4785,-1.4785,-1.4785,-1.4785,0,-1.4696,-1.4722,-1.4706,-1.4723,-1.4752,-1.4737,-1.4766,-1.4763,-1.4765,-1.4782,-1.4762,-1.4778,-1.4762,-1.4777,-1.4768,-1.4795,-1.4798,-1.4796,-1.4793,-1.4798,-1.4798,-1.4803,-1.4799,-1.4787,-1.4786,-1.4786,-1.4786,0,-1.4765,-1.4755,-1.4784,-1.4781,-1.478,-1.4802,-1.4799,-1.4815,-1.4809,-1.483,-1.4834,-1.4825,-1.4841,-1.4831,-1.4847,-1.4841,-1.4877,-1.4869,-1.4876,-1.4874,-1.4901,-1.4899,-1.4991,-1.5002,-1.4916,-1.4917,-1.4917,0,-1.4808,-1.4828,-1.4826,-1.4836,-1.4837,-1.4852,-1.486,-1.4846,-1.4855,-1.486,-1.4875,-1.4889,-1.4899,-1.4926,-1.4921,-1.4933,-1.4925,-1.4957,-1.4927,-1.4931,-1.4926,-1.4925,-1.4927,-1.4963,-1.4964,-1.4965,-1.4966,0,-1.4885,-1.4879,-1.4891,-1.4901,-1.4911,-1.4918,-1.4924,-1.4933,-1.4918,-1.4929,-1.4944,-1.4952,-1.4968,-1.4982,-1.4992,-1.4993,-1.4977,-1.4975,-1.4982,-1.4987,-1.499,-1.4989,-1.4892,-1.4973,-1.4972,-1.4972,-1.4971,-1.4971,-1.4943,-1.4959,-1.496,-1.4974,-1.4976,-1.4982,-1.4997,-1.4992,-1.5005,-1.5016,-1.5007,-1.5025,-1.5028,-1.5039,-1.5042,-1.5056,-1.5043,-1.5053,-1.5056,-1.5059,-1.5063,-1.4987,-1.5058,-1.5058,-1.5057,-1.5057,-1.5057,0,-1.5019,-1.5018,-1.5031,-1.5039,-1.505,-1.5033,-1.5038,-1.5049,-1.5065,-1.5068,-1.5079,-1.5096,-1.511,-1.5105,-1.5117,-1.513,-1.5123,-1.5133,-1.5132,-1.5133,-1.5073,-1.5066,-1.5139,-1.5139,-1.5139,-1.5139,-1.5139,-1.5139,-1.506,-1.5086,-1.508,-1.5107,-1.5107,-1.5124,-1.5129,-1.5134,-1.5136,-1.5157,-1.5167,-1.5164,-1.5164,-1.5176,-1.5187,-1.5186,-1.5191,-1.5205,-1.52,-1.5145,-1.5137,-1.5129,-1.5123,-1.5206,-1.5206,-1.5259,-1.5259,-1.526]},{"header":{"parameterUnit":"m.s-1","parameterCategory":1,"la1":30.2991,"la2":30.254,"lo1":-89.0895,"lo2":-89.0444,"dy":0.0017,"dx":0.0017,"nx":28,"ny":28,"refTime":"2024-12-05T09:00:00:Z","depth":0,"parameterNumber":3,"parameterNumberName":"V-component_of_WINDS"},"data":[0,0,0,0,0,0,0,0,0,0,0,0,0,0,0,0,0,0,0,0,0,0,0,0,0,0,0,0,0,0,0,0,0,0,0,0,0,0,0,0,0,0,0,0,0,0,0,0,0,0,0,0,0,0,0,0,0,0,-5.742,-5.7421,0,-5.7503,-5.7504,-5.7505,-5.7473,-5.7471,-5.7469,-5.7468,-5.7547,-5.755,-5.7554,0,0,0,0,0,0,0,0,0,0,0,0,0,-5.7229,-5.7233,-5.742,-5.7421,-5.7422,-5.7503,-5.7504,-5.7505,-5.7473,-5.7471,-5.7469,-5.7467,-5.7545,-5.755,-5.7555,0,0,0,0,0,0,0,0,0,0,0,0,0,-5.7312,-5.7234,-5.742,-5.7416,-5.7417,-5.7503,-5.7504,-5.7505,-5.7474,-5.7471,-5.7468,-5.7466,-5.7544,-5.7549,-5.7555,-5.7648,0,0,-5.7573,-5.7575,0,0,0,0,0,0,0,0,-5.7307,-5.7319,-5.7416,-5.7417,-5.7418,-5.7475,-5.7466,-5.7553,-5.7475,-5.7452,-5.7468,-5.7464,-5.7525,-5.7532,-5.7553,-5.7652,-5.7655,-5.7573,-5.7577,-5.7579,-5.7581,0,0,0,0,0,0,0,-5.7302,-5.7315,-5.7453,-5.7417,-5.7418,-5.7409,-5.7417,-5.7482,-5.7503,-5.7454,-5.7452,-5.7462,-5.7525,-5.7548,-5.7555,-5.7656,-5.7573,-5.7578,-5.7582,-5.7584,-5.7834,-5.7837,0,0,0,0,0,0,-5.7296,-5.7311,-5.745,-5.7455,-5.7355,-5.7415,-5.7424,-5.7459,-5.7502,-5.7506,-5.7465,-5.7461,-5.7539,-5.7548,-5.7558,-5.7669,-5.7579,-5.7585,-5.7588,-5.7831,-5.7835,-5.7838,0,0,0,0,0,0,-5.7292,-5.7309,-5.7447,-5.7383,-5.7399,-5.7421,-5.7461,-5.7462,-5.7486,-5.7511,-5.7514,-5.7485,-5.7538,-5.755,-5.7626,-5.7672,-5.7587,-5.7593,-5.7827,-5.7832,-5.7837,-5.7893,0,0,0,0,0,0,-5.7287,-5.7308,-5.7345,-5.7384,-5.7403,-5.7516,-5.7463,-5.7466,-5.7497,-5.7492,-5.7531,-5.7534,-5.7536,-5.7618,-5.7632,-5.7678,-5.7597,-5.7823,-5.783,-5.7835,-5.7888,-5.7899,-5.791,0,0,0,0,0,-5.728,-5.7356,-5.7347,-5.7364,-5.745,-5.7518,-5.7529,-5.7532,-5.7501,-5.7537,-5.7553,-5.7533,-5.7664,-5.7626,-5.7642,-5.769,-5.7821,-5.7828,-5.7835,-5.7883,-5.7897,-5.7909,0,0,0,0,0,0,-5.7319,-5.7361,-5.7351,-5.7442,-5.7477,-5.7513,-5.7559,-5.7547,-5.759,-5.7584,-5.7583,-5.7592,-5.7671,-5.7688,-5.7644,-5.7782,-5.7738,-5.7748,-5.7768,-5.7783,-5.7793,-5.7788,-5.7602,0,0,0,0,0,-5.7339,-5.7393,-5.7426,-5.7502,-5.7521,-5.7537,-5.7567,-5.7566,-5.7602,-5.7616,-5.7637,-5.7671,-5.772,-5.7752,-5.7798,-5.789,-5.7897,-5.7931,-5.7942,-5.7951,-5.796,-5.801,-5.8025,-5.7862,-5.7862,-5.7862,0,0,-5.7379,-5.7408,-5.7442,-5.7511,-5.7538,-5.7593,-5.755,-5.7609,-5.7649,-5.7624,-5.7699,-5.7715,-5.7753,-5.7838,-5.7876,-5.7854,-5.8007,-5.796,-5.7967,-5.7971,-5.8019,-5.8034,-5.8048,-5.7867,-5.7866,-5.7865,0,0,-5.748,-5.7508,-5.7576,-5.7605,-5.7647,-5.7657,-5.7674,-5.7712,-5.7723,-5.7798,-5.778,-5.7827,-5.7911,-5.7939,-5.7964,-5.8077,-5.806,-5.8091,-5.8149,-5.8198,-5.821,-5.8222,-5.8262,-5.8277,-5.81,-5.8101,-5.8101,0,-5.7524,-5.7608,-5.7611,-5.7673,-5.7704,-5.7686,-5.7753,-5.778,-5.7835,-5.7855,-5.7831,-5.7937,-5.7961,-5.8052,-5.8079,-5.81,-5.8118,-5.8087,-5.8209,-5.822,-5.8231,-5.8269,-5.8284,-5.8104,-5.8104,-5.8103,-5.8103,0,-5.766,-5.7718,-5.7767,-5.7823,-5.7859,-5.7923,-5.7935,-5.7971,-5.7967,-5.7979,-5.8055,-5.8083,-5.8136,-5.8157,-5.8152,-5.8247,-5.8233,-5.8209,-5.8164,-5.825,-5.8286,-5.8301,-5.8109,-5.8108,-5.8107,-5.8106,0,0,-5.7788,-5.7846,-5.7864,-5.7889,-5.7935,-5.7979,-5.8042,-5.8095,-5.8126,-5.8164,-5.8216,-5.8288,-5.8267,-5.8295,-5.8294,-5.8336,-5.8424,-5.8307,-5.8307,-5.8328,-5.853,-5.8548,-5.8565,-5.8413,-5.8416,-5.8418,-5.8527,0,-5.7893,-5.8006,-5.8011,-5.8113,-5.8167,-5.8151,-5.8205,-5.8239,-5.8252,-5.8298,-5.8311,-5.8363,-5.833,-5.8348,-5.8389,-5.8405,-5.8464,-5.8397,-5.846,-5.8463,-5.8452,-5.8584,-5.8603,-5.8705,-5.8541,-5.8543,-5.8545,0,-5.8031,-5.8076,-5.8185,-5.8224,-5.8246,-5.8296,-5.8345,-5.8389,-5.8426,-5.8433,-5.8466,-5.8458,-5.8521,-5.8474,-5.856,-5.8514,-5.854,-5.8552,-5.8556,-5.8562,-5.8509,-5.8594,-5.8737,-5.8752,-5.8567,-5.8565,-5.8564,0,-5.8114,-5.8201,-5.8278,-5.83,-5.8347,-5.8382,-5.8403,-5.8438,-5.8469,-5.8512,-5.8532,-5.858,-5.8606,-5.8643,-5.8648,-5.8614,-5.8735,-5.8688,-5.8741,-5.8741,-5.8767,-5.8765,-5.8917,-5.8784,-5.8784,-5.8783,-5.8783,0,-5.8231,-5.8298,-5.8316,-5.8363,-5.8437,-5.8441,-5.8514,-5.8532,-5.8563,-5.8612,-5.86,-5.8645,-5.865,-5.8696,-5.87,-5.8771,-5.8782,-5.8789,-5.8789,-5.879,-5.8789,-5.8807,-5.88,-5.8787,-5.8786,-5.8786,-5.8785,0,-5.8336,-5.8351,-5.8433,-5.8472,-5.8483,-5.8536,-5.8569,-5.8613,-5.8625,-5.8687,-5.8702,-5.8721,-5.8775,-5.8784,-5.8847,-5.885,-5.8934,-5.8927,-5.8923,-5.8922,-5.8974,-5.8969,-5.9143,-5.9165,-5.9017,-5.9019,-5.902,0,-5.841,-5.8462,-5.8507,-5.854,-5.8564,-5.8616,-5.865,-5.8655,-5.869,-5.8736,-5.8775,-5.8828,-5.8871,-5.8959,-5.8977,-5.9025,-5.9019,-5.9076,-5.9026,-5.9025,-5.902,-5.9017,-5.9022,-5.9086,-5.9087,-5.9089,-5.909,0,-5.854,-5.8545,-5.8594,-5.8647,-5.8687,-5.8728,-5.8766,-5.8793,-5.8804,-5.8843,-5.89,-5.8933,-5.8999,-5.9052,-5.91,-5.9119,-5.9106,-5.9106,-5.912,-5.9122,-5.9118,-5.9121,-5.895,-5.9102,-5.91,-5.9099,-5.9099,-5.9098,-5.8632,-5.8677,-5.8717,-5.8772,-5.8802,-5.8838,-5.8882,-5.8901,-5.8949,-5.9005,-5.9004,-5.9067,-5.9101,-5.9165,-5.9188,-5.9235,-5.9217,-5.9238,-5.9243,-5.9249,-5.9254,-5.911,-5.9244,-5.9244,-5.9243,-5.9243,-5.9243,0,-5.8761,-5.8786,-5.8837,-5.8893,-5.8936,-5.8922,-5.8964,-5.9,-5.9056,-5.9091,-5.9134,-5.9199,-5.9251,-5.9274,-5.9324,-5.9357,-5.9353,-5.937,-5.9368,-5.9373,-5.9268,-5.925,-5.9374,-5.9374,-5.9374,-5.9373,-5.9373,-5.9373,-5.8834,-5.891,-5.892,-5.9011,-5.9034,-5.9097,-5.9122,-5.9155,-5.9183,-5.9257,-5.9301,-5.9316,-5.9346,-5.9398,-5.9445,-5.945,-5.9469,-5.9489,-5.9492,-5.9393,-5.938,-5.9367,-5.9351,-5.9494,-5.9494,-5.9593,-5.9594,-5.9595]}]]